Weather in Kama

Russia / Udmurt Republic     56°18′27″N   54°05′34″E
temp.,
°C
wind,
m/s
gust,
m/s
humid.,
%
clouds,
%
prec.,
mm/h
press.,
hPa
HPBL,
m
22 april, thu
thu2201:00+8s61251100 0.0 1027933
04:00+5s61585100 0.9 10271017
07:00+4s61296100 2.1 1027882
10:00+4s61096100 2.7 1028760
13:00+5s61087100 0.3 1028753
16:00+7s51069100 0.3 1027815
19:00+6s5884100 0.1 1028818
22:00+5s51093100 0.1 1028533
23 april, fri
fri2301:00+4s598973 0.0 1028448
04:00+3s389483 0.0 1028349
07:00+4s468699 0.0 1029516
10:00+5s4582100 0.0 1029568
13:00+9sse457075 0.0 1028809
16:00+11se445914 0.0 10271007
19:00+9ese477263 0.0 1026303
22:00+5e378764 0.0 1026142
24 april, sat
sat2401:00+4ene4991100 0.0 1024214
04:00+5ene4987100 0.0 1021287
07:00+5e3692100 0.1 1019214
10:00+6e3896100 1.3 1018418
13:00+6e4894100 0.8 1016463
16:00+7ese4791100 1.4 1015875
19:00+6ese4891100 0.3 1014591
22:00+6ese3794100 0.9 1012418
25 april, sun
sun2501:00+5se4796100 0.4 1010481
04:00+5se479678 0.6 1009357
07:00+6se51192100 0.1 1007499
10:00+5sw71191100 3.8 1006799
13:00+6wsw5108092 0.6 1008973
16:00+10wsw61050100 1.1 10092033
19:00+5sw81383100 0.1 1011516
22:00+4w6118992 0.3 1012707
26 april, mon
mon2601:00+3ssw499146 0.6 1014290
04:00+2sw512870 0.6 1015343
07:00+4sw612803 0.0 1016564
10:00+8sw712545 0.0 10161619
13:00+10wsw81248100 0.2 10162411
16:00+11sw71245100 0.4 10152465
19:00+9sw51151100 0.1 1015484
22:00+5ssw3766100 0.1 1014121